Flag for Czech Republic Weather past 2 weeks in Prague, Czech Republic

Now
41 °F

Passing clouds.


Feels Like: 30 °F
Forecast: 41 / 49 °F
Wind: 26 mph from Southwest

Location: Prague Ruzyne Airport

Current Time: Dec 22, 2014 at 8:07:43 AM

Latest Report: Dec 22, 2014 at 7:30 AM


Visibility: N/A

Pressure: 30.04 "Hg

Humidity: 81%

Dew point: 36 °F

Location of PragueLocation

Historic Weather in Prague — Graph

°F

Prague temperature yesterday

Maximum temperature yesterday: 41 °F (at 12:00 PM)
Minimum temperature yesterday: 36 °F (at 2:00 AM)
Average temperature yesterday: 38 °F

Past Weeks' High & Low Weather Summary

 TemperatureHumidityPressure
High52 °F (Dec 19, 12:30 AM)100% (Dec 7, 9:30 AM)30.42 "Hg (Dec 7, 9:30 AM)
Low27 °F (Dec 9, 1:30 AM)61% (Dec 12, 5:30 PM)29.65 "Hg (Dec 12, 5:30 PM)
Average40 °F83%29.98 "Hg
* Reported Dec 7 7:00 AM — Dec 22 7:00 AM, Prague, Weather by CustomWeather, © 2014

Note: Actual official high and low records may vary slightly from our data, if they occured in-between our weather recording intervals... More about our weather records

Advertising

Prague weather history for previous 24 hours

 ConditionsComfort  
Time TempWeatherWind HumidityBarometerVisibility
7:00 AM
Dec 22
41 °FPassing clouds.24 mph81%30.04 "HgN/A
6:30 AM41 °FPassing clouds.24 mph81%30.04 "HgN/A
6:00 AM41 °FPassing clouds.26 mph81%30.04 "HgN/A
5:30 AM41 °FPassing clouds.23 mph81%30.04 "HgN/A
4:30 AM41 °FOvercast.22 mph81%30.09 "HgN/A
4:00 AM41 °FOvercast.22 mph81%30.09 "HgN/A
3:30 AM41 °FPassing clouds.24 mph76%30.09 "HgN/A
3:00 AM41 °FPassing clouds.25 mph76%30.12 "HgN/A
2:30 AM41 °FPassing clouds.23 mph76%30.12 "HgN/A
2:00 AM41 °FPassing clouds.22 mph76%30.12 "HgN/A
1:30 AM41 °FPassing clouds.25 mph76%30.15 "HgN/A
1:00 AM41 °FPassing clouds.22 mph76%30.15 "HgN/A
12:30 AM41 °FPassing clouds.23 mph76%30.15 "HgN/A
12:00 AM41 °FPassing clouds.23 mph76%30.18 "HgN/A
11:30 PM
Dec 21
41 °FPassing clouds.23 mph76%30.18 "HgN/A
10:30 PM39 °FPassing clouds.23 mph81%30.18 "HgN/A
10:00 PM39 °FPassing clouds.23 mph81%30.18 "HgN/A
9:30 PM39 °FPartly cloudy.24 mph81%30.21 "HgN/A
9:00 PM39 °FPassing clouds.21 mph75%30.24 "HgN/A
8:30 PM39 °FClear.23 mph75%30.24 "Hg10 mi
8:00 PM39 °FClear.22 mph75%30.24 "Hg10 mi
7:30 PM39 °FPassing clouds.21 mph75%30.24 "HgN/A
7:00 PM39 °FPassing clouds.17 mph75%30.27 "HgN/A
6:30 PM39 °FPassing clouds.17 mph75%30.27 "HgN/A
6:00 PM39 °FPassing clouds.18 mph75%30.27 "HgN/A
5:30 PM39 °FPassing clouds.21 mph75%30.27 "HgN/A
5:00 PM39 °FPassing clouds.20 mph75%30.27 "HgN/A
4:30 PM39 °FPassing clouds.16 mph75%30.27 "HgN/A
4:00 PM39 °FScattered clouds.15 mph75%30.30 "HgN/A
3:30 PM39 °FScattered clouds.16 mph75%30.30 "HgN/A
3:00 PM39 °FPassing clouds.17 mph75%30.30 "HgN/A
2:30 PM41 °FPassing clouds.21 mph70%30.30 "HgN/A
2:00 PM41 °FPassing clouds.20 mph70%30.30 "HgN/A
1:30 PM41 °FPassing clouds.18 mph70%30.30 "HgN/A
1:00 PM41 °FPassing clouds.18 mph66%30.33 "HgN/A
12:00 PM41 °FScattered clouds.17 mph70%30.33 "HgN/A
11:30 AM39 °FPartly sunny.18 mph75%30.33 "HgN/A
11:00 AM39 °FPartly sunny.20 mph70%30.33 "HgN/A
10:30 AM39 °FScattered clouds.18 mph70%30.33 "HgN/A
10:00 AM39 °FPassing clouds.20 mph70%30.33 "HgN/A
9:30 AM37 °FPassing clouds.21 mph75%30.30 "HgN/A
9:00 AM37 °FScattered clouds.21 mph75%30.27 "HgN/A
8:30 AM37 °FPartly sunny.18 mph75%30.27 "HgN/A
8:00 AM37 °FPartly sunny.14 mph75%30.24 "HgN/A
Weather by CustomWeather, © 2014

See weather overviewHow to use our weather pages